• In Deutschland
  • Länderverzeichnis
  • Für 7 Tage
  • Wassertemperatur
  • Satellitenkarten
  • Wetterkarte
  • Widgets
  • user-avatar
    Anmelden

    Stündliche Wetter Weilheim in Oberbayern

    Heute, 18 Dezember, Montag

    Zeit Temperatur Niederschläge Wind Luftdruck Luftfeuchtigkeit
    00:00 -5°C° 0 mm 2 m/S 717 mmHg 91%
    01:00 -6°C° 0 mm 2 m/S 717 mmHg 90%
    02:00 -6°C° 0 mm 2 m/S 716 mmHg 89%
    03:00 -7°C° 0 mm 2 m/S 716 mmHg 88%
    04:00 -7°C° 0 mm 2 m/S 716 mmHg 87%
    05:00 -7°C° 0 mm 2 m/S 715 mmHg 85%
    06:00 -6°C° 0 mm 2 m/S 715 mmHg 83%
    07:00 -6°C° 0 mm 2 m/S 715 mmHg 82%
    08:00 -5°C° 0 mm 2 m/S 715 mmHg 81%
    09:00 -4°C° 0 mm 2 m/S 714 mmHg 80%
    10:00 -1°C° 0 mm 1 m/S 714 mmHg 79%
    11:00 0°C° 0,1 mm 1 m/S 714 mmHg 79%
    12:00 0°C° 0,1 mm 1 m/S 714 mmHg 78%
    13:00 +1°C° 0,1 mm 1 m/S 714 mmHg 78%
    14:00 +1°C° 0,1 mm 1 m/S 714 mmHg 81%
    15:00 +1°C° 0,1 mm 1 m/S 714 mmHg 84%
    16:00 +1°C° 0,1 mm 1 m/S 714 mmHg 86%
    17:00 0°C° 0,1 mm 1 m/S 715 mmHg 87%
    18:00 -1°C° 0,1 mm 1 m/S 715 mmHg 88%
    19:00 -1°C° 0,1 mm 1 m/S 716 mmHg 89%
    20:00 -1°C° 0,1 mm 1 m/S 716 mmHg 90%
    21:00 -2°C° 0,1 mm 1 m/S 717 mmHg 90%
    22:00 -2°C° 0,1 mm 1 m/S 717 mmHg 91%
    23:00 -2°C° 0,1 mm 1 m/S 717 mmHg 91%

    Morgen, 19 Dezember, Dienstag

    Zeit Temperatur Niederschläge Wind Luftdruck Luftfeuchtigkeit
    00:00 -2°C° 0,1 mm 1 m/S 718 mmHg 91%
    01:00 -2°C° 0,1 mm 1 m/S 718 mmHg 91%
    02:00 -2°C° 0 mm 1 m/S 718 mmHg 91%
    03:00 -3°C° 0 mm 0 m/S 719 mmHg 92%
    04:00 -3°C° 0 mm 0 m/S 719 mmHg 92%
    05:00 -2°C° 0 mm 1 m/S 719 mmHg 92%
    06:00 -2°C° 0 mm 1 m/S 720 mmHg 92%
    07:00 -2°C° 0 mm 1 m/S 720 mmHg 93%
    08:00 -1°C° 0 mm 1 m/S 720 mmHg 92%
    09:00 -1°C° 0 mm 1 m/S 721 mmHg 91%
    10:00 -1°C° 0 mm 0 m/S 721 mmHg 90%
    11:00 +1°C° 0 mm 1 m/S 721 mmHg 89%
    12:00 +1°C° 0 mm 1 m/S 721 mmHg 88%
    13:00 +2°C° 0 mm 1 m/S 721 mmHg 87%
    14:00 +2°C° 0 mm 1 m/S 721 mmHg 89%
    15:00 +1°C° 0 mm 1 m/S 721 mmHg 92%
    16:00 +1°C° 0 mm 1 m/S 721 mmHg 94%
    17:00 0°C° 0 mm 1 m/S 722 mmHg 94%
    18:00 0°C° 0 mm 1 m/S 722 mmHg 95%
    19:00 0°C° 0 mm 1 m/S 723 mmHg 95%
    20:00 0°C° 0,1 mm 1 m/S 723 mmHg 95%
    21:00 0°C° 0,1 mm 1 m/S 723 mmHg 95%
    22:00 0°C° 0,1 mm 1 m/S 723 mmHg 95%
    23:00 0°C° 0,1 mm 1 m/S 723 mmHg 95%

    übermorgen, 20 Dezember, Mittwoch

    Zeit Temperatur Niederschläge Wind Luftdruck Luftfeuchtigkeit
    00:00 -1°C° 0,1 mm 1 m/S 723 mmHg 95%
    01:00 -1°C° 0,1 mm 1 m/S 723 mmHg 94%
    02:00 -2°C° 0,4 mm 2 m/S 722 mmHg 95%
    03:00 -2°C° 0,4 mm 2 m/S 722 mmHg 95%
    04:00 -2°C° 0,4 mm 2 m/S 722 mmHg 96%
    05:00 -2°C° 0,6 mm 2 m/S 722 mmHg 96%
    06:00 -2°C° 0,6 mm 2 m/S 722 mmHg 95%
    07:00 -2°C° 0,6 mm 2 m/S 722 mmHg 95%
    08:00 -1°C° 0,6 mm 2 m/S 722 mmHg 95%
    09:00 -1°C° 0,6 mm 3 m/S 722 mmHg 95%
    10:00 -1°C° 0,6 mm 3 m/S 722 mmHg 94%
    11:00 0°C° 0,4 mm 3 m/S 721 mmHg 94%
    12:00 0°C° 0,4 mm 3 m/S 721 mmHg 95%
    13:00 +1°C° 0,4 mm 3 m/S 721 mmHg 95%
    14:00 +2°C° 0,6 mm 2 m/S 721 mmHg 96%
    15:00 +2°C° 0,6 mm 2 m/S 721 mmHg 96%
    16:00 +1°C° 0,6 mm 2 m/S 721 mmHg 96%
    17:00 +1°C° 0,9 mm 2 m/S 721 mmHg 97%
    18:00 +1°C° 0,9 mm 2 m/S 721 mmHg 97%
    19:00 +1°C° 0,9 mm 2 m/S 721 mmHg 97%
    20:00 +1°C° 1,3 mm 2 m/S 722 mmHg 97%
    21:00 0°C° 1,3 mm 3 m/S 722 mmHg 97%
    22:00 +1°C° 1,3 mm 3 m/S 722 mmHg 97%
    23:00 +1°C° 1,2 mm 3 m/S 722 mmHg 98%

    21 Dezember, Donnerstag

    Zeit Temperatur Niederschläge Wind Luftdruck Luftfeuchtigkeit
    00:00 +1°C° 1,2 mm 3 m/S 722 mmHg 98%
    01:00 +2°C° 1,2 mm 2 m/S 722 mmHg 98%
    02:00 +2°C° 0,9 mm 2 m/S 722 mmHg 98%
    03:00 +2°C° 0,9 mm 2 m/S 722 mmHg 98%
    04:00 +2°C° 0,9 mm 2 m/S 722 mmHg 98%
    05:00 +2°C° 0,7 mm 2 m/S 722 mmHg 98%
    06:00 +2°C° 0,7 mm 2 m/S 722 mmHg 98%
    07:00 +2°C° 0,7 mm 2 m/S 723 mmHg 98%
    08:00 +2°C° 0,5 mm 2 m/S 723 mmHg 99%
    09:00 +3°C° 0,5 mm 2 m/S 723 mmHg 99%
    10:00 +3°C° 0,5 mm 2 m/S 723 mmHg 99%
    11:00 +3°C° 0,1 mm 2 m/S 723 mmHg 99%
    12:00 +3°C° 0,1 mm 2 m/S 722 mmHg 99%
    13:00 +2°C° 0,1 mm 3 m/S 722 mmHg 99%
    14:00 +2°C° 0,2 mm 3 m/S 722 mmHg 99%
    15:00 +2°C° 0,2 mm 3 m/S 722 mmHg 99%
    16:00 +2°C° 0,2 mm 3 m/S 722 mmHg 99%
    17:00 +3°C° 0,7 mm 3 m/S 722 mmHg 98%
    18:00 +3°C° 0,7 mm 3 m/S 722 mmHg 98%
    19:00 +3°C° 0,7 mm 3 m/S 722 mmHg 97%
    20:00 +3°C° 1,4 mm 3 m/S 722 mmHg 97%
    21:00 +3°C° 1,4 mm 3 m/S 722 mmHg 97%
    22:00 +3°C° 1,4 mm 4 m/S 722 mmHg 97%
    23:00 +3°C° 1,5 mm 4 m/S 722 mmHg 97%

    22 Dezember, Freitag

    Zeit Temperatur Niederschläge Wind Luftdruck Luftfeuchtigkeit
    00:00 +3°C° 1,5 mm 4 m/S 722 mmHg 98%
    01:00 +3°C° 1,5 mm 4 m/S 722 mmHg 98%
    02:00 +3°C° 1,2 mm 4 m/S 722 mmHg 98%
    03:00 +3°C° 1,2 mm 4 m/S 721 mmHg 98%
    04:00 +3°C° 1,2 mm 4 m/S 721 mmHg 98%
    05:00 +3°C° 0,6 mm 4 m/S 722 mmHg 97%
    06:00 +3°C° 0,6 mm 4 m/S 722 mmHg 97%
    07:00 +3°C° 0,6 mm 4 m/S 722 mmHg 97%
    08:00 +3°C° 0,5 mm 3 m/S 723 mmHg 98%
    09:00 +3°C° 0,5 mm 3 m/S 723 mmHg 98%
    10:00 +4°C° 0,5 mm 2 m/S 723 mmHg 98%
    11:00 +4°C° 0,4 mm 2 m/S 723 mmHg 98%
    12:00 +4°C° 0,4 mm 2 m/S 723 mmHg 97%
    13:00 +4°C° 0,4 mm 2 m/S 723 mmHg 97%
    14:00 +4°C° 0,2 mm 1 m/S 723 mmHg 97%
    15:00 +4°C° 0,2 mm 1 m/S 723 mmHg 97%
    16:00 +4°C° 0,2 mm 1 m/S 723 mmHg 97%
    17:00 +3°C° 0,1 mm 1 m/S 723 mmHg 97%
    18:00 +2°C° 0,1 mm 2 m/S 723 mmHg 96%
    19:00 +2°C° 0,1 mm 2 m/S 724 mmHg 96%
    20:00 +1°C° 0 mm 2 m/S 723 mmHg 96%
    21:00 +1°C° 0 mm 2 m/S 723 mmHg 96%
    22:00 0°C° 0 mm 3 m/S 723 mmHg 96%
    23:00 0°C° 0 mm 3 m/S 723 mmHg 94%

    23 Dezember, Samstag

    Zeit Temperatur Niederschläge Wind Luftdruck Luftfeuchtigkeit
    00:00 0°C° 0 mm 3 m/S 722 mmHg 93%
    01:00 -1°C° 0 mm 4 m/S 722 mmHg 92%
    02:00 -1°C° 0 mm 4 m/S 721 mmHg 89%
    03:00 -1°C° 0 mm 5 m/S 721 mmHg 87%
    04:00 -1°C° 0 mm 5 m/S 720 mmHg 84%
    05:00 -1°C° 0 mm 5 m/S 720 mmHg 83%
    06:00 -1°C° 0 mm 5 m/S 719 mmHg 82%
    07:00 -1°C° 0 mm 6 m/S 719 mmHg 81%
    08:00 -1°C° 0,5 mm 6 m/S 719 mmHg 84%
    09:00 -1°C° 0,5 mm 6 m/S 719 mmHg 88%
    10:00 -1°C° 0,5 mm 6 m/S 719 mmHg 91%
    11:00 -1°C° 0,9 mm 6 m/S 719 mmHg 92%
    12:00 -1°C° 0,9 mm 6 m/S 719 mmHg 92%
    13:00 0°C° 0,9 mm 5 m/S 719 mmHg 93%
    14:00 0°C° 0,5 mm 5 m/S 719 mmHg 94%
    15:00 +1°C° 0,5 mm 5 m/S 719 mmHg 94%
    16:00 +1°C° 0,5 mm 5 m/S 720 mmHg 95%
    17:00 +1°C° 0,5 mm 4 m/S 720 mmHg 95%
    18:00 0°C° 0,5 mm 4 m/S 721 mmHg 96%
    19:00 +1°C° 0,5 mm 3 m/S 721 mmHg 96%
    20:00 +1°C° 0,2 mm 3 m/S 722 mmHg 96%
    21:00 +1°C° 0,2 mm 3 m/S 722 mmHg 96%
    22:00 +2°C° 0,2 mm 2 m/S 722 mmHg 96%
    23:00 +1°C° 0 mm 2 m/S 722 mmHg 96%
    Mehr zeigen

    XHprof extension not loaded